Hourly Weather Roundup
Issued by NWS Central Illinois

Home | Current Version | Previous Version | Text Only | Print | Product List | Glossary On
Versions: 1 2 3 4 5 6 7 8 9 10 11 12 13 14 15 16 17 18 19 20 21 22 23 24 25 26 27 28 29 30 31 32 33 34 35 36 37 38 39 40 41 42 43 44 45 46 47 48 49 50
000
NZUS43 KILX 302310
HWRILX

AREA WEATHER ROUNDUP
NATIONAL WEATHER SERVICE, LINCOLN IL
600 PM CDT MON MAY 30 2016


CITY           SKY/WX    TMP DP  RH WIND       PRES   REMARKS
BLOOMINGTON    CLOUDY    85  62  45 N5        29.99S HX  85
CHAMPAIGN      LGT RAIN  81  56  42 CALM      29.98R HX  81
DANVILLE       CLOUDY    84  55  36 S6        29.94F HX  83
DECATUR        CLOUDY    81  62  52 SW7       29.98F HX  82
EFFINGHAM      CLOUDY    82  67  59 CALM      30.00S HX  84
FLORA          MOSUNNY   86  60  40 CALM      29.99S HX  86
GALESBURG      MOSUNNY   84  59  43 S6        29.96S HX  84
JACKSONVILLE   CLOUDY    84  62  46 CALM      29.97S HX  85
LACON          MOSUNNY   84  53  34 W5        29.95S HX  83
LAWRENCEVILLE  SUNNY     87  54  32 CALM      29.98F HX  85
LITCHFIELD     CLOUDY    68  59  73 NW17G31   30.02S
$$


CITY           SKY/WX    TMP DP  RH WIND       PRES   REMARKS
LINCOLN        CLOUDY    87  61  41 W6        29.96F HX  87
MACOMB         PTSUNNY   84  62  46 S7        29.98F HX  84
MATTOON        MOSUNNY   78  68  71 CALM      29.98F HX  80
MT CARMEL AP   MOSUNNY   85  52  32 N5        29.97F HX  83
OLNEY-NOBLE AP MOSUNNY   82  57  42 CALM      29.98F HX  82
PARIS          PTSUNNY   84  59  41 S5        29.99R HX  84
PEORIA         MOSUNNY   85  57  38 SW7       29.96F HX  84
PONTIAC        CLOUDY    85  57  39 SE8       29.97S HX  84
RANTOUL        NOT AVBL
ROBINSON       SUNNY     81  61  51 SE6       29.98S HX  81
SPRINGFIELD    CLOUDY    86  60  41 NW3       29.97F HX  86
TAYLORVILLE    CLOUDY    77  61  59 W6        29.99S
$$

...REGIONAL REPORTS...


CITY           SKY/WX    TMP DP  RH WIND       PRES   REMARKS
CHICAGO O`HARE MOSUNNY   83  58  42 E9        29.95S HX  83
KANKAKEE       CLOUDY    80  56  44 SW6       29.96F HX  80
MOLINE         SUNNY     87  59  38 SW10      29.93F HX  86
MOUNT STERLING PTSUNNY   82  66  59 CALM      29.97F HX  84
MOUNT VERNON   CLOUDY    86  61  42 CALM      29.99S HX  86
PITTSFIELD     CLOUDY    83  65  55 S5        29.99S HX  84
QUINCY         CLOUDY    83  63  50 S5        29.97F HX  84
ROCKFORD       CLOUDY    85  50  29 N7        29.98F HX  83
$$


CITY           SKY/WX    TMP DP  RH WIND       PRES   REMARKS
BURLINGTON     CLOUDY    83  64  52 S12       29.95F HX  84
CEDAR RAPIDS   SUNNY     84  64  50 SE8       29.92F HX  85
DES MOINES     PTSUNNY   86  58  38 S15       29.89F HX  85
KIRKSVILLE     CLOUDY    79  68  69 S6        29.97F HX  81
OTTUMWA        CLOUDY    84  63  49 S15       29.92F HX  85
ST LOUIS       CLOUDY    79  55  43 SW8       30.01R
$$


CITY           SKY/WX    TMP DP  RH WIND       PRES   REMARKS
TERRE HAUTE    MOSUNNY   84  56  38 SE6       29.98F HX  83
EVANSVILLE     SUNNY     85  56  37 NE3       29.98S HX  84
INDIANAPOLIS   PTSUNNY   82  57  42 SW9       29.97F HX  82
LAFAYETTE      CLOUDY    83  55  38 W7        29.95F HX  82
MADISON        MOSUNNY   82  49  31 VRB3      29.97S HX  81
MILWAUKEE      MOSUNNY   72  58  61 SE8       29.98S
$$






USA.gov is the U.S. government's official web portal to all federal, state and local government web resources and services.